| time (UTC) | temp F | wind direction | speed MPH | gust MPH | rain 1hr in | rain 24hr in | rain mn in | humidity % | barometer mb |
| 20260903162804 | 42 | 148 | 0.0 | 0.0 | 0.00 | 0.00 | 0.00 | 92 | 1019.2 |
| 20260903162306 | 42 | 148 | 0.0 | 0.0 | 0.00 | 0.00 | 0.00 | 92 | 1019.1 |
| 20260903161805 | 42 | 148 | 0.0 | 0.0 | 0.00 | 0.00 | 0.00 | 92 | 1018.9 |
| 20260903161305 | 42 | 148 | 1.0 | 1.0 | 0.00 | 0.00 | 0.00 | 92 | 1018.9 |
| 20260903160804 | 41 | 185 | 1.0 | 1.0 | 0.00 | 0.00 | 0.00 | 92 | 1018.8 |
| 20260903160304 | 41 | 148 | 0.0 | 0.0 | 0.00 | 0.00 | 0.00 | 92 | 1018.8 |
| 20260903155804 | 41 | 148 | 0.0 | 0.0 | 0.00 | 0.00 | 0.00 | 92 | 1018.9 |
| 20260903155306 | 41 | 148 | 0.0 | 0.0 | 0.00 | 0.00 | 0.00 | 92 | 1019.0 |
| 20260903154805 | 41 | 148 | 0.0 | 0.0 | 0.00 | 0.00 | 0.00 | 92 | 1019.0 |
| 20260903154304 | 41 | 148 | 0.0 | 0.0 | 0.00 | 0.00 | 0.00 | 92 | 1019.0 |
| 20260903153805 | 41 | 148 | 0.0 | 0.0 | 0.00 | 0.00 | 0.00 | 91 | 1019.0 |
| 20260903153304 | 40 | 148 | 0.0 | 0.0 | 0.00 | 0.00 | 0.00 | 91 | 1019.0 |
| 20260903152804 | 40 | 148 | 0.0 | 0.0 | 0.00 | 0.00 | 0.00 | 92 | 1019.0 |
| 20260903152306 | 40 | 148 | 0.0 | 0.0 | 0.00 | 0.00 | 0.00 | 91 | 1019.1 |
| 20260903151304 | 40 | 148 | 0.0 | 0.0 | 0.00 | 0.00 | 0.00 | 91 | 1019.3 |
| 20260903150803 | 40 | 148 | 0.0 | 0.0 | 0.00 | 0.00 | 0.00 | 91 | 1019.2 |
| 20260903150304 | 40 | 148 | 0.0 | 0.0 | 0.00 | 0.00 | 0.00 | 91 | 1019.2 |
| 20260903145804 | 40 | 156 | 1.0 | 2.0 | 0.00 | 0.00 | 0.00 | 91 | 1019.2 |
| 20260903145306 | 40 | 182 | 0.0 | 0.0 | 0.00 | 0.00 | 0.00 | 91 | 1019.2 |
| 20260903144804 | 40 | 182 | 0.0 | 0.0 | 0.00 | 0.00 | 0.00 | 91 | 1019.2 |
| 20260903144304 | 40 | 182 | 0.0 | 0.0 | 0.00 | 0.00 | 0.00 | 91 | 1019.0 |
| 20260903143804 | 40 | 182 | 0.0 | 0.0 | 0.00 | 0.00 | 0.00 | 91 | 1019.1 |
| 20260903143304 | 39 | 182 | 0.0 | 0.0 | 0.00 | 0.00 | 0.00 | 91 | 1019.1 |
| 20260903142803 | 39 | 182 | 0.0 | 1.0 | 0.00 | 0.00 | 0.00 | 91 | 1019.0 |
| 20260903142306 | 39 | 181 | 2.0 | 2.0 | 0.00 | 0.00 | 0.00 | 91 | 1018.9 |
| 20260903141804 | 39 | 27 | 0.0 | 0.0 | 0.00 | 0.00 | 0.00 | 91 | 1018.9 |
| 20260903141305 | 39 | 27 | 0.0 | 0.0 | 0.00 | 0.00 | 0.00 | 91 | 1018.8 |
| 20260903140804 | 39 | 27 | 0.0 | 0.0 | 0.00 | 0.00 | 0.00 | 91 | 1018.9 |
| 20260903140304 | 39 | 27 | 0.0 | 0.0 | 0.00 | 0.00 | 0.00 | 91 | 1018.8 |
| 20260903135804 | 39 | 27 | 0.0 | 0.0 | 0.00 | 0.00 | 0.00 | 90 | 1018.8 |
| 20260903135306 | 39 | 27 | 0.0 | 0.0 | 0.00 | 0.00 | 0.00 | 90 | 1018.8 |
| 20260903134805 | 39 | 27 | 0.0 | 0.0 | 0.00 | 0.00 | 0.00 | 90 | 1018.7 |
| 20260903134304 | 38 | 27 | 0.0 | 0.0 | 0.00 | 0.00 | 0.00 | 90 | 1018.9 |
| 20260903133804 | 38 | 27 | 0.0 | 0.0 | 0.00 | 0.00 | 0.00 | 90 | 1019.0 |
| 20260903133304 | 39 | 27 | 0.0 | 0.0 | 0.00 | 0.00 | 0.00 | 90 | 1018.9 |
| 20260903132805 | 39 | 151 | 0.0 | 2.0 | 0.00 | 0.00 | 0.00 | 90 | 1018.8 |
| 20260903132306 | 39 | 23 | 0.0 | 2.0 | 0.00 | 0.00 | 0.00 | 90 | 1018.7 |
| 20260903131805 | 39 | 20 | 0.0 | 0.0 | 0.00 | 0.00 | 0.00 | 90 | 1018.7 |
| 20260903131305 | 39 | 20 | 0.0 | 0.0 | 0.00 | 0.00 | 0.00 | 90 | 1018.6 |
| 20260903130805 | 39 | 20 | 0.0 | 0.0 | 0.00 | 0.00 | 0.00 | 90 | 1018.7 |
| 20260903130304 | 39 | 20 | 0.0 | 0.0 | 0.00 | 0.00 | 0.00 | 90 | 1018.7 |
| 20260903125804 | 39 | 20 | 0.0 | 1.0 | 0.00 | 0.00 | 0.00 | 90 | 1018.7 |
| 20260903125305 | 39 | 350 | 0.0 | 1.0 | 0.00 | 0.00 | 0.00 | 90 | 1018.6 |
| 20260903124804 | 39 | 157 | 0.0 | 0.0 | 0.00 | 0.00 | 0.00 | 90 | 1018.6 |
| 20260903124304 | 39 | 157 | 0.0 | 0.0 | 0.00 | 0.00 | 0.00 | 90 | 1018.6 |
| 20260903123804 | 39 | 157 | 0.0 | 0.0 | 0.00 | 0.00 | 0.00 | 89 | 1018.5 |
| 20260903123304 | 39 | 157 | 0.0 | 1.0 | 0.00 | 0.00 | 0.00 | 89 | 1018.6 |
| 20260903122804 | 39 | 160 | 0.0 | 1.0 | 0.00 | 0.00 | 0.00 | 89 | 1018.7 |
| 20260903122305 | 39 | 168 | 0.0 | 0.0 | 0.00 | 0.00 | 0.00 | 89 | 1018.6 |
| 20260903121803 | 40 | 168 | 0.0 | 0.0 | 0.00 | 0.00 | 0.00 | 89 | 1018.6 |
| 20260903121304 | 39 | 168 | 0.0 | 0.0 | 0.00 | 0.00 | 0.00 | 89 | 1018.6 |
| 20260903120804 | 40 | 165 | 2.0 | 3.0 | 0.00 | 0.00 | 0.00 | 89 | 1018.6 |
| 20260903120304 | 40 | 85 | 0.0 | 2.0 | 0.00 | 0.00 | 0.00 | 89 | 1018.5 |
| 20260903105804 | 40 | 103 | 0.0 | 0.0 | 0.00 | 0.00 | 0.00 | 88 | 1018.0 |
| 20260903105306 | 40 | 103 | 0.0 | 1.0 | 0.00 | 0.00 | 0.00 | 87 | 1018.0 |
| 20260903104806 | 40 | 186 | 2.0 | 3.0 | 0.00 | 0.00 | 0.00 | 87 | 1018.1 |
| 20260903104304 | 40 | 217 | 3.0 | 5.0 | 0.00 | 0.00 | 0.00 | 87 | 1018.1 |
| 20260903103804 | 40 | 155 | 0.0 | 0.0 | 0.00 | 0.00 | 0.00 | 87 | 1017.9 |
| 20260903103304 | 40 | 155 | 0.0 | 0.0 | 0.00 | 0.00 | 0.00 | 87 | 1017.8 |
| 20260903102804 | 40 | 155 | 0.0 | 0.0 | 0.00 | 0.00 | 0.00 | 87 | 1017.8 |
| 20260903102305 | 40 | 155 | 0.0 | 0.0 | 0.00 | 0.00 | 0.00 | 87 | 1017.8 |
| 20260903101804 | 40 | 155 | 0.0 | 0.0 | 0.00 | 0.00 | 0.00 | 87 | 1017.7 |
| 20260903101304 | 40 | 155 | 0.0 | 0.0 | 0.00 | 0.00 | 0.00 | 86 | 1017.8 |
| 20260903100804 | 40 | 155 | 0.0 | 0.0 | 0.00 | 0.00 | 0.00 | 86 | 1017.8 |
| 20260903100304 | 40 | 155 | 0.0 | 0.0 | 0.00 | 0.00 | 0.00 | 86 | 1017.8 |
| 20260903095804 | 40 | 155 | 0.0 | 0.0 | 0.00 | 0.00 | 0.00 | 86 | 1017.7 |
| 20260903095306 | 40 | 155 | 0.0 | 0.0 | 0.00 | 0.00 | 0.00 | 86 | 1017.7 |
| 20260903094804 | 40 | 155 | 0.0 | 0.0 | 0.00 | 0.00 | 0.00 | 86 | 1017.7 |
| 20260903094304 | 40 | 155 | 0.0 | 0.0 | 0.00 | 0.00 | 0.00 | 86 | 1017.7 |
| 20260903093804 | 40 | 155 | 0.0 | 0.0 | 0.00 | 0.00 | 0.00 | 86 | 1017.6 |
| 20260903093304 | 40 | 155 | 0.0 | 0.0 | 0.00 | 0.00 | 0.00 | 85 | 1017.6 |
| 20260903092804 | 40 | 155 | 0.0 | 0.0 | 0.00 | 0.00 | 0.00 | 85 | 1017.5 |
| 20260903092306 | 40 | 155 | 0.0 | 0.0 | 0.00 | 0.00 | 0.00 | 85 | 1017.5 |
| 20260903091804 | 40 | 155 | 0.0 | 0.0 | 0.00 | 0.00 | 0.00 | 85 | 1017.4 |
| 20260903091304 | 40 | 155 | 0.0 | 0.0 | 0.00 | 0.00 | 0.00 | 85 | 1017.4 |
| 20260903090804 | 40 | 155 | 0.0 | 0.0 | 0.00 | 0.00 | 0.00 | 85 | 1017.5 |
| 20260903090304 | 40 | 155 | 0.0 | 0.0 | 0.00 | 0.00 | 0.00 | 85 | 1017.5 |
| 20260903085804 | 40 | 155 | 0.0 | 0.0 | 0.00 | 0.00 | 0.00 | 85 | 1017.6 |
| 20260903085305 | 40 | 155 | 0.0 | 0.0 | 0.00 | 0.00 | 0.00 | 84 | 1017.6 |
| 20260903084803 | 40 | 155 | 0.0 | 0.0 | 0.00 | 0.00 | 0.00 | 84 | 1017.6 |
| 20260903084304 | 41 | 155 | 0.0 | 0.0 | 0.00 | 0.00 | 0.00 | 84 | 1017.5 |
| 20260903083804 | 41 | 155 | 0.0 | 0.0 | 0.00 | 0.00 | 0.00 | 84 | 1017.6 |
| 20260903083303 | 41 | 155 | 0.0 | 0.0 | 0.00 | 0.00 | 0.00 | 84 | 1017.5 |
| 20260903082804 | 41 | 155 | 0.0 | 0.0 | 0.00 | 0.00 | 0.00 | 84 | 1017.5 |
| 20260903082306 | 41 | 155 | 0.0 | 0.0 | 0.00 | 0.00 | 0.00 | 84 | 1017.4 |
| 20260903081804 | 41 | 155 | 0.0 | 0.0 | 0.00 | 0.00 | 0.00 | 83 | 1017.4 |
| 20260903081304 | 41 | 155 | 0.0 | 0.0 | 0.00 | 0.00 | 0.00 | 83 | 1017.3 |
| 20260903080804 | 41 | 155 | 0.0 | 0.0 | 0.00 | 0.00 | 0.00 | 83 | 1017.2 |
| 20260903080305 | 42 | 155 | 0.0 | 0.0 | 0.00 | 0.00 | 0.00 | 83 | 1017.2 |
| 20260903075804 | 42 | 155 | 0.0 | 0.0 | 0.00 | 0.00 | 0.00 | 83 | 1017.2 |
| 20260903075306 | 42 | 155 | 0.0 | 0.0 | 0.00 | 0.00 | 0.00 | 83 | 1017.2 |
| 20260903074803 | 42 | 155 | 0.0 | 0.0 | 0.00 | 0.00 | 0.00 | 83 | 1017.1 |
| 20260903074304 | 42 | 155 | 0.0 | 0.0 | 0.00 | 0.00 | 0.00 | 82 | 1017.1 |
| 20260903073804 | 42 | 155 | 0.0 | 0.0 | 0.00 | 0.00 | 0.00 | 82 | 1017.1 |
| 20260903073304 | 43 | 155 | 0.0 | 0.0 | 0.00 | 0.00 | 0.00 | 82 | 1017.0 |
| 20260903072804 | 43 | 155 | 0.0 | 0.0 | 0.00 | 0.00 | 0.00 | 82 | 1016.9 |
| 20260903072306 | 43 | 155 | 0.0 | 0.0 | 0.00 | 0.00 | 0.00 | 82 | 1016.9 |
| 20260903071804 | 43 | 155 | 0.0 | 0.0 | 0.00 | 0.00 | 0.00 | 81 | 1016.8 |
| 20260903071304 | 43 | 155 | 0.0 | 1.0 | 0.00 | 0.00 | 0.00 | 81 | 1016.8 |
| 20260903070804 | 44 | 166 | 2.0 | 2.0 | 0.00 | 0.00 | 0.00 | 81 | 1016.9 |
| 20260903070305 | 44 | 160 | 0.0 | 0.0 | 0.00 | 0.00 | 0.00 | 80 | 1016.6 |
| 20260903065804 | 44 | 160 | 1.0 | 2.0 | 0.00 | 0.00 | 0.00 | 80 | 1016.7 |
| 20260903065306 | 44 | 34 | 0.0 | 0.0 | 0.00 | 0.00 | 0.00 | 80 | 1016.5 |
| 20260903064804 | 44 | 34 | 0.0 | 0.0 | 0.00 | 0.00 | 0.00 | 80 | 1016.4 |
| 20260903064304 | 45 | 34 | 0.0 | 0.0 | 0.00 | 0.00 | 0.00 | 79 | 1016.5 |
| 20260903063804 | 45 | 34 | 0.0 | 0.0 | 0.00 | 0.00 | 0.00 | 79 | 1016.5 |
| 20260903063304 | 45 | 162 | 0.0 | 0.0 | 0.00 | 0.00 | 0.00 | 78 | 1016.5 |
| 20260903062804 | 46 | 162 | 0.0 | 0.0 | 0.00 | 0.00 | 0.00 | 78 | 1016.4 |
| 20260903062306 | 46 | 162 | 0.0 | 2.0 | 0.00 | 0.00 | 0.00 | 78 | 1016.4 |
| 20260903061804 | 46 | 193 | 2.0 | 2.0 | 0.00 | 0.00 | 0.00 | 77 | 1016.4 |
| 20260903061305 | 46 | 93 | 0.0 | 0.0 | 0.00 | 0.00 | 0.00 | 77 | 1016.2 |
| 20260903060804 | 47 | 93 | 0.0 | 0.0 | 0.00 | 0.00 | 0.00 | 76 | 1016.3 |
| 20260903060305 | 47 | 93 | 0.0 | 0.0 | 0.00 | 0.00 | 0.00 | 75 | 1016.2 |
| 20260903055804 | 47 | 93 | 0.0 | 0.0 | 0.00 | 0.00 | 0.00 | 74 | 1016.2 |
| 20260903055306 | 48 | 93 | 0.0 | 0.0 | 0.00 | 0.00 | 0.00 | 74 | 1016.2 |
| 20260903054804 | 48 | 93 | 0.0 | 0.0 | 0.00 | 0.00 | 0.00 | 73 | 1016.0 |
| 20260903054304 | 49 | 93 | 0.0 | 0.0 | 0.00 | 0.00 | 0.00 | 72 | 1016.0 |
| 20260903053804 | 49 | 93 | 0.0 | 0.0 | 0.00 | 0.00 | 0.00 | 72 | 1016.0 |
| 20260903053304 | 50 | 93 | 0.0 | 0.0 | 0.00 | 0.00 | 0.00 | 71 | 1015.9 |
| 20260903052804 | 50 | 93 | 0.0 | 1.0 | 0.00 | 0.00 | 0.00 | 71 | 1015.9 |
| 20260903052307 | 50 | 151 | 0.0 | 0.0 | 0.00 | 0.00 | 0.00 | 70 | 1015.6 |
| 20260903051804 | 51 | 151 | 0.0 | 0.0 | 0.00 | 0.00 | 0.00 | 70 | 1015.6 |
| 20260903051304 | 51 | 151 | 0.0 | 0.0 | 0.00 | 0.00 | 0.00 | 69 | 1015.6 |
| 20260903050804 | 52 | 151 | 1.0 | 1.0 | 0.00 | 0.00 | 0.00 | 68 | 1015.4 |
| 20260903050303 | 52 | 134 | 0.0 | 1.0 | 0.00 | 0.00 | 0.00 | 67 | 1015.5 |
| 20260903045804 | 53 | 161 | 0.0 | 1.0 | 0.00 | 0.00 | 0.00 | 66 | 1015.5 |
| 20260903045306 | 53 | 152 | 0.0 | 0.0 | 0.00 | 0.00 | 0.00 | 66 | 1015.4 |
| 20260903044804 | 53 | 152 | 0.0 | 0.0 | 0.00 | 0.00 | 0.00 | 65 | 1015.4 |
| 20260903044304 | 54 | 152 | 0.0 | 0.0 | 0.00 | 0.00 | 0.00 | 64 | 1015.4 |
| 20260903043304 | 54 | 152 | 0.0 | 0.0 | 0.00 | 0.00 | 0.00 | 63 | 1015.4 |
| 20260903042805 | 55 | 152 | 0.0 | 0.0 | 0.00 | 0.00 | 0.00 | 62 | 1015.3 |
| 20260903042306 | 55 | 164 | 1.0 | 2.0 | 0.00 | 0.00 | 0.00 | 61 | 1015.4 |
| 20260903041803 | 55 | 173 | 0.0 | 1.0 | 0.00 | 0.00 | 0.00 | 60 | 1015.3 |
| 20260903041304 | 56 | 206 | 0.0 | 2.0 | 0.00 | 0.00 | 0.00 | 59 | 1015.2 |
| 20260903040804 | 56 | 185 | 2.0 | 3.0 | 0.00 | 0.00 | 0.00 | 58 | 1015.2 |
| 20260903040303 | 56 | 166 | 2.0 | 2.0 | 0.00 | 0.00 | 0.00 | 57 | 1015.1 |
| 20260903035804 | 57 | 186 | 1.0 | 2.0 | 0.00 | 0.00 | 0.00 | 56 | 1015.1 |
| 20260903035306 | 57 | 270 | 0.0 | 0.0 | 0.00 | 0.00 | 0.00 | 55 | 1015.0 |
| 20260903034804 | 58 | 270 | 0.0 | 0.0 | 0.00 | 0.00 | 0.00 | 54 | 1015.0 |
| 20260903034304 | 58 | 270 | 0.0 | 0.0 | 0.00 | 0.00 | 0.00 | 54 | 1014.9 |
| 20260903033804 | 59 | 270 | 0.0 | 1.0 | 0.00 | 0.00 | 0.00 | 53 | 1015.0 |
| 20260903033304 | 59 | 270 | 0.0 | 2.0 | 0.00 | 0.00 | 0.00 | 52 | 1015.0 |
| 20260903032804 | 59 | 261 | 0.0 | 1.0 | 0.00 | 0.00 | 0.00 | 52 | 1015.0 |
| 20260903032305 | 59 | 302 | 1.0 | 5.0 | 0.00 | 0.00 | 0.00 | 52 | 1014.9 |
| 20260903031803 | 60 | 325 | 1.0 | 2.0 | 0.00 | 0.00 | 0.00 | 51 | 1014.8 |
| 20260903031304 | 59 | 283 | 1.0 | 3.0 | 0.00 | 0.00 | 0.00 | 51 | 1014.7 |
| 20260903030804 | 59 | 303 | 1.0 | 2.0 | 0.00 | 0.00 | 0.00 | 51 | 1014.6 |
| 20260903030304 | 59 | 313 | 1.0 | 2.0 | 0.00 | 0.00 | 0.00 | 51 | 1014.7 |
| 20260903025804 | 59 | 271 | 0.0 | 0.0 | 0.00 | 0.00 | 0.00 | 51 | 1014.5 |
| 20260903025306 | 59 | 271 | 0.0 | 0.0 | 0.00 | 0.00 | 0.00 | 51 | 1014.4 |
| 20260903024804 | 60 | 271 | 0.0 | 2.0 | 0.00 | 0.00 | 0.00 | 50 | 1014.5 |
| 20260903024303 | 60 | 274 | 1.0 | 2.0 | 0.00 | 0.00 | 0.00 | 50 | 1014.5 |
| 20260903023804 | 60 | 288 | 0.0 | 1.0 | 0.00 | 0.00 | 0.00 | 50 | 1014.4 |
| 20260903023304 | 60 | 281 | 0.0 | 2.0 | 0.00 | 0.00 | 0.00 | 50 | 1014.5 |
| 20260903022804 | 60 | 315 | 1.0 | 3.0 | 0.00 | 0.00 | 0.00 | 50 | 1014.5 |
| 20260903022306 | 60 | 309 | 3.0 | 6.0 | 0.00 | 0.00 | 0.00 | 50 | 1014.5 |
| 20260903021804 | 60 | 329 | 1.0 | 5.0 | 0.00 | 0.00 | 0.00 | 50 | 1014.5 |
| 20260903021304 | 60 | 283 | 1.0 | 2.0 | 0.00 | 0.00 | 0.00 | 50 | 1014.5 |
| 20260903020804 | 60 | 195 | 0.0 | 2.0 | 0.00 | 0.00 | 0.00 | 49 | 1014.4 |
| 20260903020304 | 60 | 260 | 1.0 | 3.0 | 0.00 | 0.00 | 0.00 | 49 | 1014.4 |
| 20260903015804 | 59 | 278 | 0.0 | 2.0 | 0.00 | 0.00 | 0.00 | 48 | 1014.4 |
| 20260903015306 | 60 | 347 | 2.0 | 5.0 | 0.00 | 0.00 | 0.00 | 47 | 1014.3 |
| 20260903014804 | 59 | 88 | 2.0 | 6.0 | 0.00 | 0.00 | 0.00 | 47 | 1014.3 |
| 20260903014304 | 59 | 352 | 4.0 | 7.0 | 0.00 | 0.00 | 0.00 | 47 | 1014.2 |
| 20260903013804 | 59 | 21 | 5.0 | 7.0 | 0.00 | 0.00 | 0.00 | 47 | 1014.2 |
| 20260903013304 | 59 | 105 | 2.0 | 3.0 | 0.00 | 0.00 | 0.00 | 48 | 1014.2 |
| 20260903012804 | 59 | 32 | 1.0 | 5.0 | 0.00 | 0.00 | 0.00 | 48 | 1014.1 |
| 20260903011804 | 59 | 51 | 1.0 | 6.0 | 0.00 | 0.00 | 0.00 | 47 | 1014.2 |
| 20260903011304 | 59 | 37 | 6.0 | 8.0 | 0.00 | 0.00 | 0.00 | 47 | 1014.1 |
| 20260903010804 | 59 | 347 | 2.0 | 6.0 | 0.00 | 0.00 | 0.00 | 48 | 1014.2 |
| 20260903010304 | 59 | 7 | 1.0 | 7.0 | 0.00 | 0.00 | 0.00 | 48 | 1014.1 |
| 20260903005805 | 59 | 354 | 5.0 | 8.0 | 0.00 | 0.00 | 0.00 | 48 | 1014.1 |
| 20260903005306 | 59 | 49 | 6.0 | 9.0 | 0.00 | 0.00 | 0.00 | 46 | 1014.0 |
| 20260903004804 | 59 | 36 | 3.0 | 7.0 | 0.00 | 0.00 | 0.00 | 47 | 1014.0 |
| 20260903004304 | 59 | 36 | 4.0 | 7.0 | 0.00 | 0.00 | 0.00 | 47 | 1014.1 |
| 20260903003804 | 59 | 337 | 5.0 | 8.0 | 0.00 | 0.00 | 0.00 | 47 | 1014.1 |
| 20260903003304 | 59 | 88 | 3.0 | 7.0 | 0.00 | 0.00 | 0.00 | 47 | 1013.9 |
| 20260903002804 | 59 | 33 | 6.0 | 10.0 | 0.00 | 0.00 | 0.00 | 46 | 1013.9 |
| 20260903002306 | 58 | 61 | 6.0 | 9.0 | 0.00 | 0.00 | 0.00 | 47 | 1013.9 |
| 20260903001805 | 58 | 26 | 2.0 | 6.0 | 0.00 | 0.00 | 0.00 | 48 | 1013.9 |
| 20260903001304 | 58 | 1 | 5.0 | 9.0 | 0.00 | 0.00 | 0.00 | 48 | 1013.9 |
| 20260903000804 | 59 | 31 | 2.0 | 7.0 | 0.00 | 0.00 | 0.00 | 47 | 1013.8 |
| 20260903000304 | 59 | 51 | 6.0 | 9.0 | 0.00 | 0.00 | 0.00 | 47 | 1013.8 |
| 20260902235804 | 59 | 30 | 5.0 | 9.0 | 0.00 | 0.00 | 0.00 | 46 | 1013.8 |
| 20260902235305 | 59 | 9 | 5.0 | 9.0 | 0.00 | 0.00 | 0.00 | 48 | 1013.7 |
| 20260902234804 | 58 | 26 | 3.0 | 6.0 | 0.00 | 0.00 | 0.00 | 49 | 1013.7 |
| 20260902234304 | 58 | 349 | 5.0 | 10.0 | 0.00 | 0.00 | 0.00 | 48 | 1013.8 |
| 20260902233804 | 58 | 18 | 2.0 | 5.0 | 0.00 | 0.00 | 0.00 | 50 | 1013.7 |
| 20260902233304 | 58 | 347 | 0.0 | 6.0 | 0.00 | 0.00 | 0.00 | 50 | 1013.7 |
| 20260902232803 | 58 | 351 | 2.0 | 5.0 | 0.00 | 0.00 | 0.00 | 50 | 1013.5 |
| 20260902232306 | 58 | 38 | 6.0 | 9.0 | 0.00 | 0.00 | 0.00 | 49 | 1013.5 |
| 20260902231804 | 58 | 333 | 2.0 | 7.0 | 0.00 | 0.00 | 0.00 | 49 | 1013.5 |
| 20260902231305 | 58 | 35 | 6.0 | 9.0 | 0.00 | 0.00 | 0.00 | 48 | 1013.4 |
| 20260902230804 | 58 | 320 | 4.0 | 9.0 | 0.00 | 0.00 | 0.00 | 49 | 1013.3 |
| 20260902230304 | 58 | 21 | 6.0 | 9.0 | 0.00 | 0.00 | 0.00 | 49 | 1013.4 |
| 20260902225804 | 58 | 26 | 3.0 | 7.0 | 0.00 | 0.00 | 0.00 | 50 | 1013.4 |
| 20260902225306 | 58 | 39 | 3.0 | 7.0 | 0.00 | 0.00 | 0.00 | 51 | 1013.4 |
| 20260902224804 | 58 | 20 | 2.0 | 5.0 | 0.00 | 0.00 | 0.00 | 50 | 1013.2 |
| 20260902224304 | 57 | 46 | 4.0 | 9.0 | 0.00 | 0.00 | 0.00 | 49 | 1013.1 |
| 20260902223804 | 57 | 14 | 6.0 | 9.0 | 0.00 | 0.00 | 0.00 | 49 | 1013.0 |
| 20260902223304 | 58 | 18 | 6.0 | 9.0 | 0.00 | 0.00 | 0.00 | 48 | 1013.1 |
| 20260902222804 | 58 | 7 | 5.0 | 7.0 | 0.00 | 0.00 | 0.00 | 50 | 1013.0 |
| 20260902222306 | 58 | 23 | 3.0 | 7.0 | 0.00 | 0.00 | 0.00 | 50 | 1012.9 |
| 20260902221804 | 57 | 20 | 5.0 | 7.0 | 0.00 | 0.00 | 0.00 | 50 | 1012.9 |
| 20260902221304 | 57 | 351 | 6.0 | 12.0 | 0.00 | 0.00 | 0.00 | 49 | 1012.9 |
| 20260902220804 | 57 | 344 | 6.0 | 10.0 | 0.00 | 0.00 | 0.00 | 48 | 1012.9 |
| 20260902220304 | 58 | 336 | 5.0 | 12.0 | 0.00 | 0.00 | 0.00 | 49 | 1012.9 |
| 20260902215804 | 57 | 29 | 9.0 | 12.0 | 0.00 | 0.00 | 0.00 | 48 | 1012.7 |
| 20260902215306 | 57 | 359 | 5.0 | 10.0 | 0.00 | 0.00 | 0.00 | 50 | 1012.6 |
| 20260902214803 | 58 | 338 | 7.0 | 10.0 | 0.00 | 0.00 | 0.00 | 51 | 1012.6 |
| 20260902214304 | 57 | 341 | 6.0 | 10.0 | 0.00 | 0.00 | 0.00 | 52 | 1012.5 |
| 20260902213804 | 57 | 4 | 7.0 | 10.0 | 0.00 | 0.00 | 0.00 | 52 | 1012.5 |
| 20260902213304 | 57 | 355 | 6.0 | 9.0 | 0.00 | 0.00 | 0.00 | 51 | 1012.4 |
| 20260902212804 | 57 | 357 | 6.0 | 10.0 | 0.00 | 0.00 | 0.00 | 51 | 1012.3 |
| 20260902212306 | 57 | 356 | 5.0 | 10.0 | 0.00 | 0.00 | 0.00 | 52 | 1012.3 |
| 20260902211804 | 57 | 1 | 3.0 | 9.0 | 0.00 | 0.00 | 0.00 | 52 | 1012.3 |
| 20260902211304 | 57 | 331 | 6.0 | 8.0 | 0.00 | 0.00 | 0.00 | 50 | 1012.3 |
| 20260902210304 | 56 | 344 | 6.0 | 14.0 | 0.00 | 0.00 | 0.00 | 52 | 1012.3 |
| 20260902205805 | 56 | 331 | 5.0 | 8.0 | 0.00 | 0.00 | 0.00 | 54 | 1012.3 |
| 20260902205306 | 56 | 4 | 6.0 | 9.0 | 0.00 | 0.00 | 0.00 | 55 | 1012.2 |
| 20260902204804 | 56 | 357 | 5.0 | 10.0 | 0.00 | 0.00 | 0.00 | 55 | 1012.2 |
| 20260902204304 | 56 | 1 | 4.0 | 12.0 | 0.00 | 0.00 | 0.00 | 53 | 1012.2 |
| 20260902203804 | 56 | 21 | 3.0 | 10.0 | 0.00 | 0.00 | 0.00 | 52 | 1012.1 |
| 20260902203305 | 56 | 17 | 9.0 | 17.0 | 0.00 | 0.00 | 0.00 | 54 | 1012.2 |
| 20260902202804 | 56 | 14 | 5.0 | 12.0 | 0.00 | 0.00 | 0.00 | 53 | 1012.2 |
| 20260902202306 | 56 | 15 | 6.0 | 14.0 | 0.00 | 0.00 | 0.00 | 53 | 1012.2 |
| 20260902201804 | 56 | 16 | 6.0 | 12.0 | 0.00 | 0.00 | 0.00 | 56 | 1012.1 |
| 20260902201305 | 55 | 1 | 6.0 | 10.0 | 0.00 | 0.00 | 0.00 | 56 | 1012.1 |
| 20260902200805 | 55 | 17 | 6.0 | 10.0 | 0.00 | 0.00 | 0.00 | 58 | 1012.0 |
| 20260902195804 | 55 | 16 | 6.0 | 12.0 | 0.00 | 0.00 | 0.00 | 60 | 1012.0 |
| 20260902195306 | 54 | 35 | 5.0 | 8.0 | 0.00 | 0.00 | 0.00 | 60 | 1012.0 |
| 20260902194804 | 54 | 356 | 4.0 | 8.0 | 0.00 | 0.00 | 0.00 | 62 | 1011.9 |
| 20260902194304 | 54 | 18 | 6.0 | 13.0 | 0.00 | 0.00 | 0.00 | 59 | 1011.8 |
| 20260902193804 | 54 | 32 | 4.0 | 9.0 | 0.00 | 0.00 | 0.00 | 64 | 1011.8 |
| 20260902193304 | 54 | 25 | 6.0 | 10.0 | 0.00 | 0.00 | 0.00 | 68 | 1011.7 |
| 20260902192804 | 53 | 24 | 4.0 | 9.0 | 0.00 | 0.00 | 0.00 | 71 | 1011.7 |
| 20260902192307 | 53 | 354 | 3.0 | 5.0 | 0.00 | 0.00 | 0.00 | 74 | 1011.7 |
| 20260902191804 | 52 | 336 | 3.0 | 5.0 | 0.00 | 0.00 | 0.00 | 76 | 1011.7 |
| 20260902191304 | 52 | 313 | 2.0 | 5.0 | 0.00 | 0.00 | 0.00 | 77 | 1011.7 |
| 20260902190804 | 51 | 323 | 1.0 | 5.0 | 0.00 | 0.00 | 0.00 | 78 | 1011.6 |
| 20260902190304 | 51 | 186 | 0.0 | 2.0 | 0.00 | 0.00 | 0.00 | 80 | 1011.6 |
| 20260902175307 | 43 | 141 | 0.0 | 0.0 | 0.00 | 0.00 | 0.00 | 94 | 1010.7 |
| 20260902174804 | 42 | 141 | 0.0 | 0.0 | 0.00 | 0.00 | 0.00 | 94 | 1010.7 |
| 20260902174304 | 41 | 141 | 0.0 | 0.0 | 0.00 | 0.00 | 0.00 | 94 | 1010.7 |
| 20260902173804 | 40 | 141 | 0.0 | 0.0 | 0.00 | 0.00 | 0.00 | 94 | 1010.6 |
| 20260902173304 | 40 | 141 | 0.0 | 0.0 | 0.00 | 0.00 | 0.00 | 94 | 1010.6 |
| 20260902172804 | 40 | 141 | 0.0 | 0.0 | 0.00 | 0.00 | 0.00 | 94 | 1010.4 |
| 20260902172308 | 39 | 141 | 0.0 | 0.0 | 0.00 | 0.00 | 0.00 | 94 | 1010.4 |
| 20260902171804 | 39 | 141 | 0.0 | 0.0 | 0.00 | 0.00 | 0.00 | 94 | 1010.3 |
| 20260902171304 | 38 | 141 | 0.0 | 0.0 | 0.00 | 0.00 | 0.00 | 94 | 1010.3 |
| 20260902170804 | 37 | 141 | 0.0 | 0.0 | 0.00 | 0.00 | 0.00 | 94 | 1010.2 |
| 20260902170304 | 37 | 141 | 0.0 | 0.0 | 0.00 | 0.00 | 0.00 | 94 | 1010.1 |
| 20260902165804 | 37 | 141 | 0.0 | 0.0 | 0.00 | 0.00 | 0.00 | 94 | 1010.2 |
| 20260902165308 | 36 | 141 | 0.0 | 0.0 | 0.00 | 0.00 | 0.00 | 94 | 1010.1 |
| 20260902164804 | 36 | 141 | 0.0 | 0.0 | 0.00 | 0.00 | 0.00 | 94 | 1010.0 |
| 20260902164304 | 36 | 141 | 0.0 | 0.0 | 0.00 | 0.00 | 0.00 | 94 | 1010.0 |
| 20260902163804 | 36 | 141 | 0.0 | 0.0 | 0.00 | 0.00 | 0.00 | 94 | 1009.9 |
| 20260902163304 | 35 | 141 | 0.0 | 0.0 | 0.00 | 0.00 | 0.00 | 93 | 1009.9 |